Regional Weather Roundup
Issued by NWS

Home | Current Version | Previous Version | Graphics & Text | Print | Product List | Glossary On
Versions: 1 2 3 4 5 6 7 8 9 10 11 12 13 14 15 16 17 18 19 20 21 22 23 24 25 26 27 28 29 30 31 32 33 34 35 36 37 38 39 40 41 42 43 44 45 46 47 48 49 50
000
ASUS43 KOAX 010202
RWRNE

WEATHER ROUNDUP FOR NEBRASKA
NATIONAL WEATHER SERVICE OMAHA NE
900 PM CDT WED AUG 31 2016

NOTES: SATELLITE DATA IS BEING USED TO AUGMENT CLOUD COVER ABOVE
       12000 FEET.
       "FAIR" INDICATES FEW OR NO CLOUDS BELOW 12,000 FEET WITH NO
       SIGNIFICANT WEATHER AND/OR OBSTRUCTIONS TO VISIBILITY.

  * THESE STATIONS DO NOT REPORT WEATHER SUCH AS RAIN...SNOW OR FOG.

NEZ001>004-019>022-054>056-010300-
NEBRASKA PANHANDLE

CITY           SKY/WX    TMP DP  RH WIND       PRES   REMARKS
SCOTTSBLUFF    CLEAR     71  59  65 SE13      30.19S
ALLIANCE       CLEAR     64  56  75 SE8       30.21R
CHADRON        CLEAR     72  54  53 SE9       30.16R
KIMBALL        CLEAR     67  60  78 SE12      30.25S
SIDNEY         CLEAR     66  59  78 SE10      30.25R
$$

NEZ057>060-069>072-079>082-010300-
SOUTHWEST NEBRASKA

CITY           SKY/WX    TMP DP  RH WIND       PRES   REMARKS
NORTH PLATTE   CLEAR     65  60  84 E6        30.20R
IMPERIAL       CLOUDY    67  62  84 SE8       30.21R
LEXINGTON      PTCLDY    71  64  80 SE3       30.20R
MCCOOK         PTCLDY    68  61  78 E6        30.20R
OGALLALA       CLEAR     69  63  82 SE5       30.22R
$$

NEZ005>010-023>029-035>040-094-010300-
NORTH CENTRAL NEBRASKA

CITY           SKY/WX    TMP DP  RH WIND       PRES   REMARKS
VALENTINE      CLEAR     72  57  59 SE8       30.19R
AINSWORTH      CLEAR     70  57  64 SE8       30.21R
BROKEN BOW     CLEAR     67  60  78 E5        30.20R
O`NEILL        CLEAR     70  58  65 SE6       30.21R
ORD            CLEAR     67  58  72 CALM      30.19R
THEDFORD       CLEAR     70  57  63 SE5       30.22R
$$

NEZ041-046>049-061>064-073>077-083>087-010300-
SOUTH CENTRAL NEBRASKA

CITY           SKY/WX    TMP DP  RH WIND       PRES   REMARKS
GRAND ISLAND   CLEAR     67  59  75 E6        30.20R
AURORA         CLEAR     65  63  91 E6        30.19R
HASTINGS       CLEAR     67  58  72 E6        30.20R
HEBRON         CLEAR     66  62  89 CALM      30.17R
HOLDREGE       CLEAR     67  62  85 E5        30.20R
KEARNEY *      CLEAR     64  57  77 E8        30.19R
YORK           CLEAR     66  59  77 E7        30.19R
$$

NEZ011>018-030>034-042>045-010300-
NORTHEAST NEBRASKA

CITY           SKY/WX    TMP DP  RH WIND       PRES   REMARKS
NORFOLK        CLEAR     65  59  81 SE3       30.19R
ALBION         CLEAR     67  59  77 E6        30.20R
BLAIR          CLEAR     69  60  72 N5        30.17R
FREMONT        CLEAR     70  60  71 CALM      30.18R
TEKAMAH        CLEAR     67  62  84 NE6       30.16R
WAYNE          CLEAR     66  63  90 CALM      30.20R
$$

NEZ050>053-065>068-078-088>093-010300-
SOUTHEAST NEBRASKA

CITY           SKY/WX    TMP DP  RH WIND       PRES   REMARKS
LINCOLN        CLEAR     67  61  81 NE7       30.17R
OMAHA EPPLEY   PTCLDY    67  61  81 NW3       30.16R
BEATRICE       CLEAR     69  62  77 CALM      30.15S
FALLS CITY     CLEAR     70  63  78 N3        30.13R
NEBRASKA CITY  CLEAR     68  61  79 NE5       30.16R
PLATTSMOUTH    CLEAR     69  61  75 NE3       30.16R
$$

NEZ044-045-051>053-067-010300-
OMAHA AREA

CITY           SKY/WX    TMP DP  RH WIND       PRES   REMARKS
OMAHA EPPLEY   PTCLDY    67  61  81 NW3       30.16R
BLAIR          CLEAR     69  60  72 N5        30.17R
FREMONT        CLEAR     70  60  71 CALM      30.18R
MILLARD        CLEAR    N/A N/A N/A CALM      30.16R
OFFUTT AFB     PTCLDY    65  63  94 N2        30.15R
PLATTSMOUTH    CLEAR     69  61  75 NE3       30.16R
WAHOO          FAIR      66  61  84 NE5       30.17R
$$




USA.gov is the U.S. government's official web portal to all federal, state and local government web resources and services.